Theta_e
296 296 296 296 296 296 296 298 300 303 304 304 304 307 310 311 310 308 307 308 309 310 309 308 308 307 308 309 308 309 310 309 309 310 310 309 309 310 309 309 310 310 309 310 310 311 312 313 314 316 315 315 315 314 315 314 313 313 313 312 313 314 314 314 314 313 312 311 311 311 311 311 312 313 314 315 315 315 315 314 315 314 312 314 312 312 318
296 296 296 296 296 296 296 298 301 303 304 304 305 308 310 310 309 309 307 308 310 310 309 308 308 307 309 310 308 308 309 309 309 309 309 310 310 309 310 310 310 310 310 310 310 310 312 312 313 314 316 315 313 314 315 314 314 314 314 314 314 314 314 314 314 314 313 312 312 312 311 311 313 314 314 313 314 316 317 316 315 314 313 313 312 313 320
296 296 296 296 296 296 296 298 301 303 304 304 305 306 309 309 309 309 308 308 309 309 309 309 308 308 309 309 309 309 309 309 310 310 309 310 310 310 310 310 310 310 311 311 311 311 312 313 314 314 314 314 313 314 315 315 315 314 313 314 314 312 312 313 314 315 315 314 314 313 312 312 313 313 313 313 314 316 316 314 312 312 314 314 311 314 319
296 296 296 296 296 296 297 298 301 303 304 304 305 306 308 309 308 308 309 309 309 309 308 309 309 309 308 308 309 309 308 309 309 310 309 309 309 309 309 309 310 311 311 311 312 311 311 312 313 314 314 313 312 314 316 316 316 315 313 313 314 313 312 312 313 313 313 313 312 311 312 313 313 313 313 313 314 316 317 314 312 314 315 315 314 318 320
296 296 296 296 296 296 297 298 300 302 303 304 305 306 307 308 307 307 308 308 309 308 308 308 308 309 308 308 308 308 308 309 309 309 309 308 308 309 308 308 310 311 312 314 313 312 311 312 313 313 313 312 312 313 315 316 317 316 315 314 315 313 312 312 312 312 311 312 311 311 312 313 313 313 314 314 314 316 317 316 316 317 315 314 318 322 321
295 295 295 296 296 296 298 299 300 301 302 303 305 307 306 306 306 306 306 306 307 307 307 307 307 307 308 307 307 308 308 308 308 308 309 308 308 309 309 308 308 309 311 313 314 313 313 313 313 313 312 312 312 312 312 313 315 316 315 315 316 314 312 312 312 311 311 312 312 312 312 311 312 313 314 315 315 316 317 316 316 319 318 317 321 323 320
295 295 296 296 296 296 299 299 299 300 301 302 304 306 306 306 306 306 306 306 307 305 304 306 306 306 307 307 306 307 306 306 305 305 307 308 308 308 308 307 307 308 309 312 314 313 313 313 312 313 313 314 313 313 312 311 313 314 314 315 316 315 313 312 312 311 311 312 312 312 312 312 312 312 313 313 314 315 316 316 317 318 320 320 320 319 315
295 295 296 296 296 297 299 299 299 300 300 301 302 304 305 305 305 306 306 306 306 305 304 306 307 306 306 306 306 306 306 305 304 304 306 307 307 307 308 306 306 307 308 310 310 309 310 311 310 311 313 313 313 313 312 311 312 313 313 314 316 316 314 313 312 312 312 312 312 312 312 312 312 312 313 313 313 314 315 315 315 317 319 318 317 315 313
295 295 296 296 296 297 299 299 299 299 300 300 301 302 302 303 302 304 306 305 304 305 305 306 306 305 304 304 305 305 305 305 304 303 304 305 305 305 306 306 307 307 307 307 306 305 307 308 308 308 310 310 310 310 310 310 311 312 313 314 315 315 314 314 313 313 313 312 312 312 313 312 312 313 314 314 314 313 312 311 312 315 317 317 317 315 313
295 296 296 296 296 297 299 299 299 299 299 299 300 300 301 302 302 303 305 304 303 304 304 304 305 304 303 303 304 304 305 305 305 304 303 304 304 304 305 307 307 308 307 306 305 304 305 306 306 306 306 307 308 308 308 309 310 311 312 314 314 315 314 314 314 315 314 312 312 313 313 314 313 313 313 313 312 310 309 308 309 310 313 314 315 313 311
295 296 296 296 296 297 299 299 299 299 298 298 298 298 299 301 302 303 304 303 302 304 303 301 302 302 303 303 303 303 304 305 305 305 304 304 303 303 304 306 307 306 305 304 303 303 303 303 304 305 306 307 308 309 309 309 309 310 311 313 314 315 314 314 315 315 315 313 312 313 314 315 313 309 308 310 311 310 309 308 308 308 308 310 311 310 309
295 295 295 295 296 297 298 299 299 299 298 298 298 298 298 299 301 303 304 302 302 302 301 300 301 302 302 303 303 303 303 303 304 304 303 303 304 303 303 305 306 304 303 303 303 303 304 304 305 306 307 308 309 309 310 309 309 310 311 312 313 314 314 314 314 314 314 312 312 314 316 313 310 307 307 308 309 309 308 307 306 307 307 308 308 307 306
295 295 295 295 296 296 297 299 299 299 298 298 297 298 298 298 300 302 303 301 301 301 301 300 301 301 302 303 303 303 303 302 302 303 303 303 303 303 302 303 303 303 302 302 303 305 306 307 307 308 308 308 309 309 309 308 309 310 310 311 312 313 313 312 312 312 313 312 313 315 313 309 306 306 307 308 308 308 308 307 306 306 307 307 306 305 305
295 295 295 295 295 296 297 298 299 298 298 298 297 297 297 298 300 301 302 301 300 301 301 300 300 301 302 302 303 303 303 303 303 303 303 303 303 302 302 302 302 301 302 303 305 307 307 308 308 308 309 309 310 310 309 308 307 308 309 309 311 312 312 312 311 310 311 313 313 312 310 309 307 306 306 306 307 308 309 308 306 305 307 307 305 304 305
295 295 295 295 295 295 296 298 298 298 298 297 297 297 297 297 298 300 301 302 300 300 300 300 300 301 302 302 303 303 303 304 304 304 303 303 303 302 302 301 301 302 303 305 306 307 306 307 308 309 309 310 310 310 309 308 306 307 308 308 309 311 311 311 311 309 309 312 313 311 311 311 309 306 305 305 305 305 307 308 306 304 306 306 305 304 305
295 295 295 295 295 295 296 297 298 298 297 297 297 297 297 297 297 299 301 302 300 300 299 299 300 301 302 301 301 302 302 302 303 304 304 303 303 302 301 302 302 302 304 305 306 305 305 306 307 308 308 308 307 308 308 308 307 306 307 308 308 310 310 310 310 309 308 310 312 311 311 310 308 306 305 304 304 304 306 308 307 304 304 305 305 305 305
296 295 295 295 295 295 296 297 298 298 297 297 297 297 297 297 297 299 300 300 300 299 298 299 300 301 301 300 300 300 302 302 302 303 303 302 302 302 302 302 302 303 304 305 306 305 305 305 306 307 306 306 306 306 307 307 308 307 307 308 309 309 309 309 309 309 308 309 310 310 310 307 305 305 304 304 303 304 307 309 307 303 303 304 304 304 304
296 296 296 295 295 296 296 296 297 298 298 297 297 297 297 296 297 298 300 300 299 299 298 298 299 299 299 299 299 299 300 301 302 302 302 302 302 302 301 301 302 303 303 304 305 304 304 304 305 306 306 305 305 306 306 306 307 306 306 307 307 307 307 308 309 309 309 309 310 310 308 304 303 303 303 303 303 305 307 308 305 303 302 303 303 303 303
296 296 296 295 295 296 296 296 297 297 297 298 298 297 297 297 297 298 300 300 299 299 298 298 299 299 298 299 300 300 299 300 301 301 302 302 302 301 301 301 302 303 304 304 304 303 304 304 304 305 305 305 305 305 304 304 305 305 305 306 306 306 306 306 308 308 308 308 309 310 308 304 303 304 303 303 306 307 306 304 303 302 303 302 302 303 303
296 296 296 295 295 296 296 296 296 297 297 298 298 298 298 297 297 297 299 299 299 299 298 298 298 298 298 299 299 299 300 300 300 300 301 301 301 302 302 301 302 303 303 303 303 303 303 303 304 304 304 304 304 304 304 302 302 303 304 305 305 305 306 306 306 306 306 307 308 309 307 303 303 304 304 304 305 305 303 302 302 302 302 302 302 302 302
296 296 296 296 295 295 296 296 296 297 297 298 298 298 298 297 297 297 298 298 299 299 298 297 297 298 297 298 298 298 299 299 299 300 301 300 300 302 301 301 301 302 302 302 302 302 302 303 303 303 304 304 304 304 303 303 302 302 303 304 305 304 305 306 305 305 306 307 306 306 304 303 303 304 304 303 303 302 302 302 303 302 302 302 302 302 302
295 296 296 296 296 295 296 296 296 296 297 297 298 298 298 297 297 297 297 297 298 298 297 297 297 297 297 297 297 297 298 298 297 298 300 300 300 300 301 301 301 301 301 302 302 302 302 303 303 303 303 303 303 303 303 303 303 302 302 303 304 304 304 305 304 303 304 305 303 302 302 302 303 303 303 302 302 302 302 302 302 302 302 302 302 301 301
295 295 296 296 296 295 296 296 297 296 296 296 297 298 298 297 297 297 297 298 297 297 297 297 297 298 297 297 297 297 297 297 296 296 298 300 300 299 300 300 300 300 301 301 301 302 302 302 302 303 302 302 303 303 302 303 303 303 302 302 302 302 302 303 304 302 302 302 302 302 302 302 302 302 302 302 302 301 301 301 301 301 300 300 300 299 298
295 295 296 296 296 296 296 296 297 296 295 295 296 297 298 298 298 298 299 299 299 298 298 298 298 298 298 297 297 297 296 296 296 296 296 298 299 299 299 299 299 301 301 299 299 301 301 301 301 302 302 301 302 302 302 302 302 302 302 301 301 302 302 303 303 303 302 302 302 302 302 301 301 301 301 300 300 299 299 299 299 298 298 297 297 297 296
295 294 295 296 296 296 296 296 297 296 295 294 295 296 297 298 298 298 299 299 299 299 299 298 298 297 297 297 297 297 297 296 296 296 296 297 298 298 298 297 297 299 299 298 299 301 301 300 301 301 301 300 301 301 301 301 301 301 301 302 301 302 302 302 302 302 302 302 302 302 302 301 301 301 300 300 299 298 298 297 297 297 297 296 296 296 296
295 294 295 295 296 296 296 296 296 295 294 294 294 295 296 297 297 298 298 298 299 299 299 299 298 297 297 297 297 297 297 296 296 297 297 296 296 296 297 298 297 297 298 298 299 300 300 300 301 301 300 300 301 301 301 301 301 301 301 301 301 301 301 302 302 302 301 302 302 301 301 301 301 301 300 300 300 299 299 298 298 298 297 297 296 296 296
295 294 294 295 296 296 296 296 296 295 295 295 294 295 295 296 296 297 297 298 299 299 299 299 299 297 297 297 297 296 296 297 297 297 297 297 297 297 297 298 298 298 299 299 298 299 300 300 300 299 299 299 300 301 301 301 301 301 300 301 301 301 301 301 301 301 301 301 302 301 301 300 301 301 300 300 300 299 299 299 298 298 298 298 297 296 296
295 294 294 294 295 296 296 295 295 295 295 295 295 294 294 295 296 296 297 297 299 300 299 299 299 298 298 298 297 297 297 296 297 298 298 297 297 297 297 297 298 298 298 299 299 299 300 299 298 299 299 299 299 300 300 300 300 300 300 301 301 301 301 301 301 301 301 301 301 301 301 301 301 300 300 300 299 299 299 298 298 298 297 297 297 297 296
295 294 294 294 294 295 296 295 295 296 296 295 295 295 295 295 295 295 296 296 297 299 299 299 299 299 299 298 298 297 297 297 297 298 298 298 297 297 297 297 297 297 298 298 298 299 299 298 298 299 298 298 299 299 299 299 299 299 300 300 300 300 300 301 301 301 300 301 301 300 300 301 301 300 300 299 299 299 299 298 298 297 297 296 296 296 296
295 294 294 294 294 295 296 295 295 296 296 296 296 297 298 298 295 294 295 296 297 298 299 299 299 299 298 298 298 298 298 298 298 298 298 298 297 297 297 297 297 297 297 297 297 298 298 298 298 299 297 297 298 298 297 297 298 299 300 300 299 299 299 299 300 300 300 300 301 300 299 300 300 299 299 299 298 298 298 297 297 296 296 295 295 295 295
295 294 294 294 294 294 295 296 296 296 296 297 298 299 300 300 297 294 294 295 296 297 298 299 299 299 298 298 298 298 297 297 297 297 297 297 297 296 296 297 297 297 297 297 297 297 297 297 298 299 298 297 297 297 297 297 297 298 299 299 299 299 298 298 299 299 299 299 300 299 299 299 299 299 299 299 298 297 297 296 296 295 294 294 294 294 294
294 294 294 294 294 294 294 295 296 297 297 297 299 299 299 298 296 294 294 295 296 297 299 299 298 298 299 299 298 297 297 298 298 298 298 298 298 298 297 297 297 297 296 297 297 296 297 296 297 298 299 297 296 297 297 296 296 297 299 299 299 299 299 298 298 298 298 298 299 298 299 299 298 298 298 298 297 297 296 296 296 295 294 294 294 293 293
294 294 294 294 294 294 294 295 296 297 297 297 298 298 298 297 296 295 294 295 296 297 298 298 298 298 298 299 298 297 298 299 299 299 298 297 297 298 298 298 297 297 296 297 297 297 296 296 297 297 298 297 297 297 297 296 297 297 298 299 299 299 299 299 299 299 298 298 298 298 299 299 298 298 298 297 297 296 296 296 295 294 294 293 294 293 293
295 294 294 294 294 294 294 295 296 297 297 298 299 298 298 298 296 294 294 295 297 297 297 298 299 298 298 299 299 297 298 299 299 299 299 298 297 298 298 298 298 297 297 297 297 297 297 297 297 297 297 297 296 296 296 297 297 297 298 299 299 299 299 299 299 299 299 298 298 298 298 298 298 297 297 297 296 296 295 295 295 294 294 294 294 294 293
294 294 294 295 294 294 294 294 296 297 298 299 299 298 298 298 296 294 294 295 297 298 298 298 298 298 298 298 299 298 298 299 299 299 299 298 297 297 298 298 298 297 297 296 297 297 298 297 297 297 297 297 296 295 296 297 298 297 297 299 299 299 299 299 299 298 298 298 298 298 298 298 298 297 296 296 296 295 295 295 294 294 294 294 294 294 294
295 295 295 294 294 294 295 296 296 298 299 299 299 298 298 297 295 294 295 295 296 297 298 298 298 299 299 298 298 298 298 299 299 299 298 298 298 297 297 298 298 297 296 296 297 298 298 297 296 297 297 296 296 296 297 297 297 297 297 298 298 299 299 299 298 298 298 298 298 298 298 297 297 297 296 296 296 295 295 295 294 294 294 294 294 294 294
294 294 294 294 295 296 298 298 297 298 299 299 298 298 297 297 296 295 296 296 297 297 298 299 298 298 299 298 298 298 298 299 299 299 299 298 298 297 297 297 297 297 296 297 297 297 297 296 296 296 296 296 297 297 297 297 297 297 297 298 298 298 298 298 298 298 298 298 298 298 298 297 297 296 296 296 295 295 295 295 294 294 294 294 294 294 294
294 294 294 296 297 299 299 298 298 298 299 298 298 298 297 297 298 298 298 299 299 298 298 299 299 298 298 299 298 298 298 299 299 299 299 298 298 297 297 297 296 296 296 297 296 296 296 296 296 296 296 297 297 297 296 296 297 296 297 297 298 298 298 298 298 298 298 298 298 298 298 297 297 296 296 296 295 295 295 294 294 294 294 294 294 294 293
295 295 295 296 298 299 299 298 298 298 298 298 298 298 298 298 298 298 298 299 300 299 299 300 300 299 300 300 299 298 298 299 299 299 299 298 297 297 297 297 296 296 296 296 296 295 296 296 295 295 296 297 297 296 296 296 296 296 296 296 297 298 298 298 298 298 297 297 297 297 297 297 297 296 296 296 295 295 294 294 294 294 294 294 293 293 293
295 295 296 297 297 297 297 297 297 298 298 298 298 298 298 298 297 297 298 298 298 298 299 299 299 299 299 299 299 299 298 298 299 299 298 298 297 297 297 297 296 295 296 296 296 295 295 296 295 295 296 297 297 296 296 297 297 296 295 295 296 297 298 298 298 297 297 297 297 297 297 297 297 296 296 296 295 295 294 294 294 294 294 293 293 292 292
295 296 296 296 296 296 296 296 296 297 297 298 297 297 297 297 297 296 297 297 297 297 298 298 299 299 299 298 299 299 298 298 298 298 298 298 297 297 297 297 296 295 296 296 295 295 295 295 295 296 296 297 297 296 296 297 297 297 295 295 296 297 298 298 298 297 297 297 297 297 297 297 296 296 296 296 295 294 293 293 293 293 294 293 293 292 292
296 296 296 296 296 296 296 297 297 297 297 297 296 296 296 297 297 297 297 297 297 298 298 298 298 299 298 298 298 298 298 297 297 298 298 298 297 297 297 296 295 295 296 296 295 295 295 295 295 296 297 297 296 296 296 297 297 296 296 296 296 297 298 298 298 297 296 297 297 297 296 296 296 296 296 296 295 295 294 293 293 294 294 294 293 293 292
295 296 296 296 296 297 297 297 296 296 296 296 296 297 297 297 297 298 298 298 298 298 298 298 298 298 298 297 298 298 297 297 297 298 298 297 296 296 296 296 295 296 296 296 296 296 295 295 295 296 297 297 296 296 296 296 296 296 296 296 295 296 297 297 297 297 296 297 297 297 296 295 295 296 296 295 295 295 295 294 294 294 294 294 294 293 292
295 296 296 296 296 296 296 296 296 296 296 296 296 297 298 298 298 298 298 298 298 299 299 299 299 299 298 299 299 299 298 298 297 298 298 297 297 296 296 296 296 296 296 296 296 296 295 295 296 296 296 296 296 296 296 296 295 296 297 296 295 295 296 297 297 297 297 296 296 297 296 296 295 295 295 295 295 295 295 294 294 294 294 294 294 293 292
296 296 296 296 296 295 296 296 296 296 297 297 297 298 298 298 298 298 298 298 298 299 298 299 299 299 299 299 299 298 298 298 298 297 297 297 297 296 296 296 296 296 295 295 296 295 295 296 296 297 296 296 295 295 295 295 295 295 296 297 296 295 295 297 297 297 297 297 296 296 296 296 295 295 295 295 295 295 295 295 294 294 294 294 294 294 293
296 296 296 296 296 295 296 296 296 297 297 297 298 299 299 298 299 299 298 297 298 298 298 298 298 298 299 299 298 298 298 298 298 297 297 297 296 296 296 296 296 295 295 295 295 295 295 296 297 297 296 296 295 295 295 296 295 295 296 297 297 296 296 297 297 297 297 297 297 296 296 296 296 295 295 295 295 295 295 294 294 294 294 294 294 294 293
296 296 296 296 296 296 296 296 297 297 298 298 298 298 298 298 298 298 297 297 298 298 298 298 298 298 298 298 298 298 298 297 297 297 297 296 296 296 296 295 295 295 295 295 295 295 296 296 296 296 296 296 296 296 296 296 296 295 295 296 298 298 297 297 297 297 297 297 297 297 296 296 296 296 296 296 295 295 294 294 294 294 294 294 294 294 293
297 296 295 296 296 296 297 297 297 298 298 298 298 297 297 297 298 298 297 297 297 298 298 298 298 298 298 298 297 298 298 297 297 297 296 296 296 296 296 295 295 295 295 295 295 296 296 296 296 296 296 296 296 296 296 296 296 296 295 296 297 298 298 297 297 297 297 297 297 296 296 296 296 296 296 296 296 295 295 294 294 294 294 295 295 294 293
296 296 296 296 296 297 297 298 298 298 298 297 297 297 297 298 298 298 297 297 297 298 298 297 297 297 298 298 297 297 297 297 296 296 296 296 296 295 295 295 296 296 296 296 296 296 296 296 296 296 296 296 296 296 296 295 296 296 296 296 296 297 298 297 297 297 297 297 297 296 296 296 296 296 296 296 296 296 295 295 294 294 294 295 295 294 293
296 296 297 297 297 297 297 297 298 298 298 297 298 298 298 298 298 298 297 297 298 298 297 297 297 297 297 297 296 296 297 297 296 296 296 296 296 296 295 295 296 296 296 296 297 296 296 296 296 296 296 296 296 295 295 295 295 296 296 296 296 296 297 297 297 297 297 297 297 297 296 296 296 296 296 296 296 296 296 295 294 294 294 295 295 294 294
296 297 297 297 297 297 297 297 298 298 298 298 298 298 298 298 298 298 297 297 297 298 298 298 298 297 297 297 296 296 297 297 296 296 296 296 296 296 295 296 296 296 296 296 296 296 296 296 296 296 296 296 296 295 295 295 295 295 296 296 296 296 296 296 296 296 296 297 297 296 296 296 296 296 296 296 296 296 296 296 295 294 294 295 295 295 294
297 297 297 297 297 297 297 298 298 298 298 298 298 298 298 298 298 297 296 296 297 298 298 298 297 297 296 297 297 297 297 296 296 296 296 296 296 296 296 296 296 297 296 296 296 296 296 296 296 296 296 296 296 295 295 295 295 295 295 295 295 295 295 295 295 295 296 296 296 296 296 296 296 296 295 295 295 296 296 296 296 295 295 295 295 295 294
Wind_Speed
20 21 22 22 23 23 22 21 21 20 18 17 12 5 6 6 4 6 8 5 6 4 5 3 4 6 2 2 5 5 5 6 6 5 6 7 7 6 6 6 6 6 5 6 6 5 5 6 6 6 7 4 4 4 8 10 5 2 1 3 2 1 2 5 7 4 2 5 3 2 1 2 6 4 3 4 6 6 6 5 3 5 6 5 6 6 3
21 22 22 23 23 23 22 19 19 19 18 17 13 5 3 4 4 6 10 8 4 4 3 1 3 4 3 4 6 7 6 6 6 6 5 3 3 5 5 4 5 4 3 4 5 3 4 5 4 4 5 4 6 2 3 7 5 2 2 2 2 1 2 4 7 7 6 6 6 5 4 4 5 3 1 2 3 3 2 2 3 6 8 9 8 5 3
21 22 22 23 24 22 21 18 17 17 16 15 12 6 2 2 1 3 10 12 6 2 3 4 3 3 5 5 4 5 5 1 2 3 1 2 2 3 2 1 2 3 3 4 5 4 4 4 2 1 3 5 6 4 1 5 7 10 10 8 5 2 2 4 5 7 7 7 5 3 4 4 3 2 2 0 2 3 4 5 7 7 7 9 9 3 5
21 22 23 24 24 23 21 18 16 15 14 12 11 7 3 3 3 3 5 9 10 8 6 6 4 3 4 4 1 3 5 3 2 1 1 3 2 2 2 2 3 4 5 6 5 4 4 3 2 2 4 5 4 4 3 5 10 16 18 15 9 3 2 4 3 2 1 2 4 3 1 3 4 4 3 2 0 2 4 7 8 6 6 8 6 6 10
21 23 24 24 24 23 21 18 16 14 13 11 10 9 5 3 4 5 4 5 7 6 8 9 5 4 3 2 2 3 4 3 2 2 2 3 2 2 3 1 3 5 5 7 5 3 4 3 2 1 3 5 6 6 7 9 11 12 15 15 9 3 1 1 4 6 5 6 8 6 3 4 5 5 5 4 2 1 3 3 4 6 6 7 5 12 13
22 23 24 24 23 22 21 19 17 15 13 10 7 7 7 4 3 5 4 3 5 6 7 9 7 6 4 1 1 3 2 3 4 3 2 3 3 2 2 4 2 2 4 5 4 4 4 4 3 2 3 5 8 8 7 8 8 8 9 9 7 5 5 5 4 6 6 7 8 8 7 7 8 8 9 9 7 5 4 4 7 7 3 2 7 13 12
22 23 24 25 23 21 21 20 18 17 13 10 8 8 7 5 5 6 4 4 6 6 7 8 8 10 8 4 5 6 8 9 7 5 2 3 6 5 3 6 6 2 1 2 3 2 1 3 4 2 2 3 4 6 7 7 5 6 6 4 3 3 6 9 9 9 7 6 7 8 8 7 7 9 9 9 10 10 9 8 8 8 7 6 10 15 13
22 23 24 24 22 21 21 20 20 18 14 13 16 13 8 5 3 3 4 7 8 7 8 8 7 8 8 6 7 8 10 10 8 8 7 5 6 7 6 7 8 8 6 4 6 5 5 4 5 3 2 1 1 1 2 3 4 6 5 3 1 1 4 10 9 7 6 4 5 6 6 5 5 5 6 7 7 8 8 7 6 6 7 9 11 13 10
22 23 23 23 21 20 21 21 21 20 17 18 19 15 10 8 6 4 3 4 6 6 6 6 5 5 6 6 7 8 10 10 7 8 12 11 8 9 8 6 6 9 11 10 9 7 6 5 5 5 4 3 4 3 3 2 2 5 5 4 3 2 4 7 7 6 6 4 3 3 4 5 5 6 4 5 5 5 6 5 5 4 4 8 8 7 7
22 22 22 22 20 19 19 21 21 21 21 21 19 16 12 8 8 5 3 3 5 5 5 5 4 4 5 5 6 7 10 10 6 5 9 14 13 11 10 6 3 7 11 10 9 8 7 5 5 4 3 4 5 5 6 5 2 3 4 4 5 5 6 6 7 7 5 6 5 3 2 2 5 5 1 4 4 5 6 5 5 5 3 1 3 6 7
21 21 20 20 19 18 18 19 20 21 22 22 21 18 14 8 5 4 2 3 6 7 6 6 5 3 4 4 4 7 10 12 10 7 6 10 14 14 13 10 5 6 8 9 9 8 5 4 4 2 0 2 5 5 6 7 7 4 1 3 4 5 6 6 6 6 5 7 8 5 4 6 3 0 1 2 3 6 6 5 5 5 4 3 7 9 9
20 20 19 19 18 17 16 17 19 20 21 21 20 19 14 9 7 5 3 4 6 6 6 6 5 5 5 4 3 5 8 9 10 9 5 7 13 15 15 14 8 5 8 11 8 3 0 1 1 3 4 5 6 6 6 7 7 6 4 1 4 6 6 3 2 4 3 7 8 6 7 5 2 2 3 2 4 10 12 10 7 6 6 8 11 11 10
19 19 19 18 17 16 15 16 17 19 19 19 20 19 15 11 8 5 5 5 5 5 5 6 8 9 9 7 4 4 4 3 4 5 5 6 11 14 13 10 8 9 11 10 4 3 3 3 3 4 4 5 4 3 5 8 7 6 5 3 2 7 6 2 0 2 2 6 7 5 2 2 4 4 5 6 8 10 11 9 7 6 6 9 10 11 12
18 18 18 17 17 15 13 14 15 17 18 18 18 18 15 12 9 6 5 5 6 7 5 4 7 10 10 10 6 2 4 2 2 1 3 3 4 8 9 9 10 11 11 7 3 5 4 3 4 4 5 5 5 4 4 6 7 6 5 4 1 4 6 5 4 3 3 6 7 3 2 3 4 5 4 3 3 3 2 4 6 5 4 8 11 11 12
17 17 17 16 16 15 13 12 13 16 17 17 16 17 16 13 10 7 5 4 5 8 10 6 6 8 8 10 9 4 3 2 0 2 4 4 3 5 7 11 12 10 9 6 2 2 2 2 4 5 6 5 4 4 4 4 5 5 3 3 2 1 2 4 5 4 3 6 5 4 4 4 4 6 4 3 3 3 3 2 6 4 3 9 11 11 13
17 17 16 15 15 15 13 11 12 13 15 16 15 15 15 15 14 10 6 4 4 5 9 8 6 6 6 9 11 8 5 4 4 1 2 4 8 8 8 11 11 10 9 5 1 1 1 2 3 4 3 1 1 2 2 3 3 4 4 4 3 2 2 1 3 3 4 6 7 6 4 1 4 5 4 3 2 3 3 2 5 5 5 7 9 11 11
16 16 15 14 15 15 13 11 10 11 13 15 16 15 14 13 15 15 12 12 12 10 10 9 6 5 6 7 9 9 7 5 4 3 1 4 8 9 12 12 9 10 10 4 1 1 0 1 2 4 1 3 2 1 0 1 2 3 3 4 4 2 1 2 3 2 2 5 6 3 1 3 3 2 3 3 2 2 5 5 5 8 8 7 9 10 8
15 16 14 12 13 15 13 11 9 9 11 12 14 16 15 13 13 13 11 11 13 12 12 12 11 10 8 7 8 8 7 6 4 3 2 3 6 9 12 12 8 8 9 5 1 2 2 1 1 2 1 3 1 2 0 1 2 2 2 1 3 3 1 3 6 5 3 4 5 2 2 3 3 2 3 3 1 3 5 3 6 12 12 9 10 10 8
14 15 14 12 12 14 14 12 10 9 10 10 12 14 14 14 14 14 12 11 12 11 11 12 13 13 10 8 9 8 7 7 7 6 2 2 7 9 7 5 7 8 7 4 2 2 2 2 2 2 0 3 2 1 2 2 2 3 2 1 1 2 1 2 4 4 3 4 5 3 2 3 3 2 2 1 2 2 2 4 10 14 13 11 11 11 10
12 14 13 11 10 12 13 13 11 9 9 10 12 12 11 11 12 14 13 12 12 13 12 12 13 14 13 12 12 11 10 10 10 8 5 6 11 11 4 1 7 8 5 4 3 2 2 2 3 2 2 2 2 1 2 4 4 4 3 1 3 3 2 2 1 1 2 4 5 3 1 3 3 2 1 0 1 3 8 11 13 13 13 12 11 11 10
10 12 13 11 9 10 12 12 11 10 8 8 10 11 10 9 10 11 11 9 9 10 11 10 11 12 13 14 14 13 13 12 11 9 7 9 13 9 1 3 8 7 4 4 2 2 2 2 2 1 1 2 1 1 2 4 4 5 4 2 2 4 4 1 2 2 3 4 3 1 1 4 4 3 4 7 7 9 12 13 13 12 10 10 10 10 9
8 10 11 10 8 8 9 11 11 10 8 7 7 8 9 8 8 9 11 11 10 10 10 10 12 12 13 14 14 14 14 14 14 12 9 9 11 9 5 5 7 7 6 5 2 2 1 1 1 1 1 1 1 1 1 1 2 4 3 2 2 5 4 2 3 4 3 3 4 4 4 6 7 8 11 13 13 11 11 11 12 11 9 8 9 9 8
6 8 9 9 8 7 7 8 9 9 8 6 5 6 7 6 6 7 8 9 10 10 8 7 8 10 11 12 12 13 13 14 16 16 12 9 7 8 8 8 7 5 6 7 5 3 3 2 2 1 2 2 2 1 1 1 1 3 3 3 5 5 3 2 2 6 7 7 8 8 8 9 10 11 13 13 13 12 11 11 11 10 9 9 8 7 6
5 6 7 8 7 6 6 7 8 9 9 7 6 6 5 4 3 3 4 3 4 6 6 6 7 7 8 9 10 11 11 11 13 15 15 13 8 6 7 8 6 4 6 7 6 4 3 2 1 1 3 3 3 2 1 1 2 2 1 3 5 3 1 1 4 5 3 4 7 8 9 10 11 11 12 12 12 12 11 11 11 10 8 8 6 5 5
4 3 4 6 6 5 5 5 6 7 8 8 7 6 4 3 3 3 3 2 2 2 4 6 8 7 6 8 9 9 8 9 10 11 13 13 11 7 6 7 7 6 6 6 5 3 2 1 1 1 3 3 4 2 1 1 1 1 2 1 4 3 1 2 4 3 2 5 9 9 9 9 8 8 9 9 10 10 10 9 9 8 6 6 5 5 5
3 2 2 3 5 4 3 4 5 6 7 7 8 7 6 4 3 4 4 4 3 2 3 5 6 6 6 7 8 7 7 8 9 9 10 11 11 8 6 5 6 6 5 5 5 3 2 2 2 2 3 2 3 2 2 2 1 1 1 3 3 1 1 1 3 4 5 7 9 9 8 8 7 7 8 8 8 9 8 7 7 6 5 5 4 4 4
4 3 2 2 3 3 3 2 3 4 5 6 7 8 7 6 4 3 4 4 2 1 2 5 5 5 6 7 6 7 7 7 7 7 8 10 10 8 6 5 5 4 3 3 3 2 2 3 3 4 4 3 2 2 2 2 0 1 2 4 1 2 2 2 3 4 3 5 10 9 4 4 8 9 8 7 7 7 6 5 4 3 3 3 3 3 3
4 4 4 3 2 2 2 1 2 3 4 4 5 6 7 6 5 4 4 3 2 1 2 5 5 5 5 6 6 6 6 7 6 6 7 8 8 7 7 7 6 5 4 3 3 2 3 3 3 3 3 2 1 1 2 1 1 2 2 3 2 2 2 1 1 1 3 6 11 7 2 3 9 10 8 7 5 4 4 3 2 2 2 2 2 2 3
4 4 5 5 4 2 1 0 1 2 3 4 4 4 5 6 5 4 3 3 4 3 2 3 4 3 3 4 5 6 7 7 7 6 5 6 7 7 7 7 7 6 5 4 3 4 5 5 4 3 3 3 3 0 2 2 2 1 3 4 4 4 5 5 4 5 6 8 9 6 5 6 9 9 7 6 4 3 2 2 2 2 2 2 2 2 2
4 4 4 6 6 4 3 2 2 0 2 4 4 2 1 3 4 4 3 2 3 3 1 2 2 3 3 3 4 6 7 7 7 6 5 5 6 7 6 6 6 5 3 3 4 3 3 4 4 4 4 4 3 1 1 1 1 2 5 6 6 6 6 7 7 7 7 8 8 7 8 8 8 7 6 5 3 2 2 1 1 1 1 2 2 2 2
5 5 4 5 6 5 4 3 3 2 1 3 4 1 1 1 4 4 2 2 3 2 2 1 2 4 3 2 3 5 6 7 7 6 4 4 5 6 5 4 4 5 4 4 4 3 2 3 3 2 3 3 4 2 0 0 1 3 5 7 7 7 7 8 8 8 8 9 8 7 7 7 6 5 4 3 2 2 1 1 1 1 2 3 2 1 1
5 4 4 5 5 5 5 4 4 3 2 2 1 1 1 3 4 3 2 3 3 2 2 1 2 3 2 2 2 4 5 5 5 4 4 4 4 4 3 3 3 4 4 2 2 2 3 3 2 1 2 2 3 2 1 0 1 3 5 7 7 7 7 7 8 8 8 8 7 5 5 5 4 2 2 3 3 2 1 2 2 2 3 3 1 1 1
4 4 4 4 4 4 4 4 4 3 2 1 0 1 3 5 6 4 2 3 3 2 1 1 1 2 1 2 3 4 4 4 4 3 3 5 6 3 2 2 2 2 2 2 1 2 2 1 1 1 2 1 3 3 1 0 2 3 4 7 7 7 7 7 7 7 7 6 4 2 2 4 4 3 2 4 4 3 2 3 4 4 4 2 1 0 1
4 4 4 4 4 3 4 5 4 3 2 1 0 1 3 6 7 3 3 3 2 2 2 1 1 2 2 3 3 4 5 4 5 5 4 6 6 4 2 1 0 0 2 3 1 1 2 1 2 0 2 1 1 2 2 1 3 3 5 7 8 7 7 7 7 7 6 5 3 2 2 3 4 4 4 4 4 4 3 4 5 5 4 2 1 1 2
4 3 3 3 3 2 3 4 4 3 2 1 1 1 3 5 5 2 4 4 1 2 2 1 1 2 2 3 3 4 4 4 5 6 5 5 5 4 4 3 1 1 3 3 2 2 1 1 2 2 1 1 2 3 2 1 3 4 5 7 9 9 8 7 6 6 6 5 3 3 3 3 4 4 4 4 4 4 5 6 6 5 4 3 2 2 3
4 2 1 1 2 3 4 4 5 4 3 2 2 0 3 4 3 3 4 4 2 2 2 1 1 1 1 2 3 3 3 2 3 4 4 3 3 4 5 4 0 2 3 3 3 1 1 1 3 3 1 1 2 2 1 2 1 3 4 6 9 9 7 6 7 7 7 6 5 4 4 4 4 3 4 4 4 5 6 7 6 5 4 3 3 3 3
3 1 2 2 4 4 4 4 4 4 4 3 2 1 3 3 3 3 4 3 3 4 2 1 1 3 2 1 3 2 3 3 3 3 4 4 3 3 4 4 2 2 2 3 0 3 2 1 3 4 2 2 2 1 2 3 3 3 3 4 7 8 7 7 8 9 8 7 6 6 5 5 4 4 4 4 5 7 7 7 6 6 5 4 4 4 4
3 3 4 5 4 3 3 3 4 4 4 3 2 2 3 3 2 3 2 2 3 4 2 1 3 3 1 1 2 2 3 3 3 2 4 4 3 1 2 2 2 2 3 1 2 3 2 2 2 4 3 2 1 2 3 3 3 4 5 5 6 8 9 9 9 9 8 7 7 7 7 6 5 5 5 5 6 7 7 6 6 6 5 4 4 4 5
4 5 5 5 3 3 4 5 5 6 5 3 2 2 2 1 1 2 1 1 2 3 2 2 4 4 2 1 2 3 3 4 4 2 3 4 3 2 3 2 2 2 3 1 3 1 3 2 1 3 3 2 2 2 4 5 4 5 6 7 8 9 10 10 9 8 6 4 4 6 8 7 6 6 6 7 7 8 7 6 6 5 5 5 5 5 5
5 5 5 4 3 4 5 6 6 6 4 3 2 2 1 1 1 1 1 2 3 3 3 2 3 4 4 3 2 3 4 4 4 4 4 3 2 2 3 2 2 2 4 1 3 1 3 2 1 2 2 0 2 4 6 5 4 5 7 9 11 11 11 10 9 7 5 4 3 4 6 6 5 5 6 8 9 9 8 7 6 5 4 4 5 5 5
5 5 5 5 6 7 8 7 6 5 3 2 2 1 1 2 2 1 1 2 3 3 3 2 1 3 4 4 3 2 3 3 2 3 4 2 1 2 4 2 1 2 3 1 2 1 3 2 2 3 2 2 3 5 6 5 4 5 5 9 12 12 11 10 9 7 6 5 4 4 5 5 5 6 7 8 9 9 9 8 6 4 4 4 4 4 4
5 5 6 8 9 10 9 6 4 3 1 1 1 2 1 1 1 0 1 2 2 1 2 3 2 2 4 3 2 2 3 2 1 3 3 1 1 2 3 1 0 3 2 2 1 3 3 3 3 3 2 2 3 5 6 6 5 3 3 9 12 12 11 10 9 7 7 6 5 5 4 5 6 7 8 8 9 9 8 7 6 4 3 3 3 4 4
4 6 8 8 7 5 4 3 2 1 1 1 1 1 1 1 1 1 2 3 2 1 2 3 2 1 2 2 1 2 2 2 2 3 3 1 1 1 2 1 2 2 1 1 3 4 3 3 4 3 2 3 3 5 6 6 5 2 6 10 11 11 11 9 8 7 7 6 6 5 5 5 6 7 8 9 9 8 7 7 6 5 4 3 3 4 4
5 5 6 5 3 1 2 2 2 1 1 1 1 1 2 3 2 2 2 2 2 1 2 2 2 2 2 2 2 2 1 1 1 2 3 2 1 2 2 2 1 1 1 2 4 3 3 3 4 3 3 2 3 4 6 8 7 3 6 9 10 10 11 9 8 8 8 7 6 6 5 5 6 7 8 8 8 8 8 7 6 5 4 4 4 4 4
4 3 3 2 1 1 1 1 1 1 1 1 0 1 2 3 3 2 3 2 1 0 1 2 3 4 3 2 2 2 2 2 2 2 2 2 3 3 2 2 2 2 2 4 4 3 3 3 2 1 2 2 3 4 6 8 9 5 6 10 11 11 11 10 8 8 8 7 6 6 6 7 7 8 8 8 8 8 8 7 6 6 4 4 4 4 4
3 2 2 1 1 2 0 1 1 1 1 1 1 1 2 3 3 3 3 1 1 2 2 2 3 5 5 4 2 1 2 4 4 2 1 3 3 2 1 2 3 3 3 4 4 4 4 3 2 2 2 3 5 5 5 7 10 9 4 9 13 13 12 10 9 8 7 7 7 6 6 7 7 8 8 8 8 8 8 8 7 6 5 4 4 4 4
2 1 1 1 1 0 0 1 2 2 2 3 3 4 4 3 3 3 2 1 1 2 2 3 3 4 4 3 3 3 3 3 3 2 2 3 3 2 1 2 3 3 3 4 5 4 3 3 3 2 2 3 5 6 5 6 8 10 7 5 10 12 12 11 9 8 8 7 7 7 6 6 7 8 8 8 9 9 9 9 8 7 6 5 4 4 4
1 0 0 1 1 1 1 3 4 4 4 4 4 4 3 2 2 3 2 1 1 2 2 3 4 3 2 2 3 4 4 3 3 3 2 2 3 2 2 3 3 3 4 5 5 4 4 4 4 3 2 3 5 7 7 7 7 9 8 5 5 10 12 11 10 10 9 8 7 7 7 6 7 7 8 8 9 9 9 9 9 8 7 6 5 5 4
1 1 2 2 1 2 3 4 4 4 4 4 3 3 2 2 1 2 2 0 1 2 2 3 4 4 3 2 3 4 4 2 2 2 1 2 3 2 2 3 5 4 4 4 4 5 6 7 6 5 4 5 7 8 8 8 8 8 8 6 4 6 10 11 11 10 10 9 8 7 7 6 7 7 7 8 8 9 9 9 10 9 8 7 5 5 4
2 2 2 2 1 3 4 4 3 3 5 5 3 3 3 2 1 1 1 1 2 3 3 3 3 3 3 3 3 3 3 2 2 3 3 4 3 3 3 5 5 4 4 4 6 7 8 8 7 7 7 8 10 10 10 9 9 9 8 7 5 4 7 10 11 10 10 10 10 8 8 8 7 7 7 7 7 7 8 9 10 10 9 8 7 6 5
1 1 1 1 1 3 5 3 2 2 3 3 3 3 3 3 3 2 1 2 4 5 5 4 3 3 3 3 3 2 2 2 3 4 4 4 4 3 5 6 5 5 6 8 9 9 10 10 9 9 10 11 12 12 12 11 10 11 10 9 8 6 6 8 10 11 11 11 11 11 10 10 9 8 7 7 7 7 8 9 10 11 11 10 8 7 7
0 1 2 2 1 2 3 2 2 2 3 3 2 2 2 4 4 3 3 4 5 6 5 4 3 3 3 2 2 2 2 2 3 4 5 5 4 5 6 7 8 8 10 12 12 12 12 11 11 12 12 13 13 13 13 12 12 12 12 12 10 9 8 8 9 11 11 11 12 12 12 11 10 10 10 9 9 9 9 9 9 10 11 11 10 9 8
Wind_Direction
7 7 7 7 6 3 0 357 356 356 359 6 15 30 23 25 50 10 347 346 353 304 236 199 214 222 233 274 246 227 226 237 230 209 207 221 227 225 239 248 246 252 259 264 264 255 256 251 241 230 210 169 102 128 131 115 103 319 87 85 40 5 261 237 227 224 146 116 124 135 50 262 236 232 245 250 241 233 246 257 218 208 216 220 236 232 151
8 8 8 9 8 6 4 2 2 1 1 5 13 25 22 31 64 26 8 4 329 283 269 262 232 223 234 244 225 213 223 242 241 228 215 218 232 233 237 235 239 249 246 258 262 254 251 248 245 251 222 139 84 75 149 134 114 51 73 93 96 136 315 278 225 214 203 193 194 183 182 215 224 207 174 285 272 233 235 251 232 234 225 221 237 230 120
9 9 9 10 10 9 8 7 6 7 7 7 14 25 349 336 63 38 26 33 45 38 -0 330 285 256 240 233 226 215 207 199 304 255 198 45 327 264 264 269 258 250 233 241 246 237 253 253 233 233 187 125 89 59 196 185 144 113 106 90 80 102 5 323 247 227 223 217 214 208 200 184 162 123 116 50 253 215 220 224 228 233 210 212 241 230 114
10 10 10 11 12 13 12 10 11 13 13 14 26 41 19 352 20 12 18 40 52 56 29 350 307 278 242 224 320 275 209 139 54 309 95 59 26 353 353 310 251 236 224 227 225 212 224 239 233 203 154 124 91 68 93 141 132 125 120 106 90 86 35 8 348 339 327 344 10 -0 289 164 137 124 110 78 263 246 255 235 233 239 206 209 225 150 132
12 12 11 12 14 17 17 15 14 16 17 21 37 46 32 22 26 3 352 25 32 37 31 15 353 321 286 243 346 318 220 166 88 56 58 59 50 34 30 357 247 231 220 215 206 186 193 186 161 154 128 115 110 99 97 104 111 124 127 119 111 109 108 25 36 54 49 34 34 30 46 96 93 93 86 63 66 209 247 255 295 299 244 219 155 130 131
15 14 12 13 17 21 23 22 20 21 21 21 36 41 30 45 58 20 3 355 11 22 12 7 17 19 5 0 24 32 91 90 58 42 48 58 32 356 47 33 346 236 229 223 190 162 164 142 106 116 131 132 136 128 106 100 120 144 141 134 141 143 153 170 137 104 81 53 43 41 58 78 74 71 71 61 63 77 79 47 10 350 293 195 124 120 112
18 15 14 16 20 26 29 29 29 29 27 37 63 63 43 56 74 49 41 39 43 36 352 351 33 31 12 28 41 43 66 66 47 20 17 70 36 20 66 46 29 70 213 237 161 122 128 119 94 63 98 130 154 146 121 108 138 164 148 137 163 159 158 164 154 139 120 82 60 48 47 62 70 65 60 58 63 68 72 67 50 49 63 80 103 104 91
19 17 17 18 23 31 33 34 36 35 37 54 65 65 55 51 53 46 62 64 58 46 359 353 41 33 2 20 38 40 55 58 52 36 29 49 36 23 53 57 46 66 78 81 86 51 18 70 76 28 24 84 93 116 115 107 135 153 147 145 199 304 170 166 159 152 148 118 82 63 42 35 35 27 26 38 53 60 61 54 43 57 81 93 101 95 83
22 20 21 21 25 34 36 38 40 38 44 53 55 56 58 62 67 66 70 53 40 44 29 11 34 34 11 11 18 28 40 39 51 59 45 43 34 11 14 27 44 70 71 64 60 35 7 30 41 18 18 40 38 36 36 36 151 160 155 166 185 184 164 172 186 198 191 171 130 91 54 21 331 308 346 28 36 52 55 41 15 19 89 121 122 102 97
24 23 25 24 28 34 36 40 40 39 46 49 46 47 46 56 72 64 52 47 29 40 55 41 41 38 5 357 358 9 23 25 37 69 47 36 29 12 359 347 10 66 58 39 15 348 332 338 348 350 12 43 55 62 57 43 47 152 158 176 187 175 160 171 204 218 195 166 151 118 73 317 279 267 32 54 76 103 86 53 29 12 6 134 124 101 111
26 27 28 27 29 34 35 37 37 37 40 41 40 41 38 49 69 27 353 65 46 42 55 48 50 46 5 1 1 3 15 24 29 42 39 20 14 13 12 7 26 64 35 357 332 321 318 319 321 314 245 115 102 95 80 64 49 43 113 189 187 184 185 184 203 219 186 146 135 138 203 227 246 188 115 58 100 124 109 71 45 30 19 62 92 105 118
28 28 30 31 31 33 34 34 34 34 35 36 37 35 34 51 64 25 20 71 57 50 61 53 41 33 30 46 56 24 22 19 19 28 31 4 3 13 20 16 18 29 358 339 325 308 180 138 137 133 135 128 118 110 91 80 66 46 40 154 171 178 195 201 227 231 172 134 142 177 212 222 20 57 149 143 116 115 105 88 64 61 89 106 108 114 116
31 29 31 33 32 33 36 35 34 34 34 35 37 33 33 51 61 37 37 68 61 41 53 60 44 30 31 42 60 79 68 26 359 15 21 14 10 13 17 11 353 337 335 338 326 227 191 163 153 146 146 146 143 123 81 67 60 54 44 29 166 173 173 148 222 233 157 160 185 201 188 105 68 87 127 132 136 132 115 93 70 67 103 121 115 113 114
31 31 32 34 33 35 38 38 37 37 36 37 38 35 37 53 70 63 48 69 72 43 29 48 36 22 23 25 25 100 115 116 192 78 55 67 24 2 360 352 339 334 335 332 265 221 213 178 172 181 181 184 194 189 136 80 50 41 38 24 29 180 177 175 187 201 210 211 206 168 118 147 133 121 122 112 125 143 118 95 89 68 93 125 124 122 121
30 32 33 34 35 36 39 43 44 42 39 40 44 44 43 53 75 79 57 76 89 54 38 31 5 -0 16 24 19 32 69 43 342 171 134 107 44 10 358 346 344 351 346 323 274 241 236 210 209 209 204 204 204 188 167 139 79 54 48 44 39 56 173 188 200 204 225 231 215 182 196 202 140 124 118 53 18 331 316 104 113 97 106 129 131 130 129
30 31 33 34 36 38 41 48 51 49 45 44 49 53 52 56 69 73 54 57 90 56 35 24 349 337 10 30 28 26 23 10 351 314 150 61 21 12 -0 350 355 3 350 319 306 354 262 229 234 228 222 238 208 139 137 161 124 87 91 108 95 53 49 152 211 194 202 230 228 215 221 191 100 118 111 65 5 279 273 201 146 139 133 135 138 136 135
29 31 34 36 37 39 45 52 56 57 55 53 53 55 53 57 70 76 70 71 82 74 43 26 12 15 32 36 32 22 11 5 355 336 352 18 9 2 358 359 8 10 357 336 290 0 253 211 252 235 206 28 358 216 153 136 117 93 96 116 120 119 139 205 225 203 190 232 238 226 141 71 83 88 52 25 346 242 231 221 167 147 143 137 135 135 132
29 31 35 39 40 42 46 55 61 61 60 59 59 58 54 55 69 77 74 75 83 77 52 40 45 52 46 34 32 27 15 8 2 336 322 13 13 355 351 -0 12 13 6 1 5 41 63 77 337 275 121 57 345 269 324 56 64 47 17 67 108 113 129 216 228 220 199 216 230 226 79 85 85 34 13 4 320 215 224 215 129 133 137 126 116 115 108
27 31 37 43 46 46 48 54 62 66 65 63 64 63 60 58 67 77 74 72 81 80 61 51 53 52 45 35 37 36 26 15 8 356 343 38 6 335 317 356 17 7 4 12 40 43 43 81 55 345 15 109 82 6 45 55 32 22 -0 341 70 71 74 212 222 226 214 209 219 219 105 75 52 42 55 0 251 207 147 106 117 125 124 116 107 97 88
24 30 37 46 51 52 52 54 58 66 73 71 68 67 63 57 64 75 78 76 83 82 68 55 53 49 45 43 39 32 27 21 14 12 28 20 350 323 265 75 15 -0 5 20 39 40 18 64 74 349 338 82 63 356 91 88 58 27 6 10 37 12 299 212 153 0 251 204 209 227 163 72 20 354 144 119 317 126 116 115 120 117 109 106 99 85 77
20 27 34 45 55 56 56 57 57 63 73 75 71 69 66 62 61 70 78 79 82 84 73 60 55 53 50 49 44 37 34 29 19 13 21 20 5 352 25 48 5 2 12 4 23 62 18 26 63 30 31 71 28 216 137 120 104 60 18 8 49 13 328 249 95 16 283 219 200 292 91 82 31 13 89 87 84 110 121 118 115 113 108 102 93 82 74
17 23 30 41 51 55 57 56 55 59 64 69 74 70 67 73 73 73 78 80 82 89 85 70 62 60 57 55 51 47 46 44 39 28 14 20 29 34 53 43 22 23 10 341 348 81 45 13 51 52 101 81 63 119 123 235 147 95 37 357 37 35 20 21 60 52 27 43 76 80 96 96 76 75 91 94 96 109 117 115 113 109 100 92 91 87 75
9 18 24 35 45 49 51 49 50 55 58 65 83 83 76 81 83 78 79 81 87 94 88 70 66 62 52 48 51 54 53 50 50 43 24 14 35 52 50 38 27 27 14 359 -0 11 11 27 26 12 56 39 353 175 167 292 91 90 69 56 61 56 31 -0 74 107 92 73 82 100 107 104 98 95 94 92 93 96 98 101 102 93 83 85 90 86 74
-0 8 14 25 40 49 51 48 47 51 54 60 77 88 85 78 72 77 87 87 95 101 86 65 60 51 43 45 51 55 54 48 47 45 35 25 28 51 54 35 17 19 26 20 13 357 -0 23 355 348 65 30 326 277 164 96 61 62 97 112 94 77 42 74 115 138 134 99 105 112 110 107 105 98 90 83 83 85 86 89 91 88 84 82 74 62 49
350 357 359 11 29 47 59 59 56 54 54 56 64 73 81 76 70 85 104 108 106 110 94 78 67 55 55 63 57 49 50 49 41 39 38 35 31 38 51 38 29 35 36 26 12 346 350 25 325 116 88 25 325 330 46 33 47 6 288 139 99 85 118 125 119 123 109 115 124 125 116 114 115 106 100 96 91 89 87 85 84 82 73 59 46 40 35
331 324 323 350 14 35 58 66 63 60 58 58 60 64 67 69 77 93 106 110 105 99 99 93 81 66 63 65 59 53 51 49 40 32 30 32 36 44 53 40 33 39 41 39 29 10 22 48 18 45 79 32 337 -0 50 50 73 31 3 55 68 124 183 127 116 121 111 119 138 143 133 131 139 132 118 114 109 103 99 94 89 84 72 56 38 27 28
314 301 286 301 342 13 44 67 65 59 56 56 58 62 62 58 62 83 110 126 132 118 111 110 101 89 80 69 60 55 47 38 33 27 21 23 33 46 49 34 30 33 32 47 54 31 52 75 50 43 64 50 6 27 54 56 114 199 111 84 47 238 165 129 171 174 149 138 151 157 151 140 150 148 132 120 117 115 110 101 90 84 78 65 45 34 40
309 287 275 271 287 331 14 72 81 61 54 53 55 62 65 62 64 75 93 114 111 44 71 104 115 120 104 76 50 34 26 22 20 17 22 31 39 47 47 41 42 43 35 44 67 57 51 63 63 66 68 29 355 82 106 128 211 220 127 89 18 343 50 44 255 121 77 119 141 145 41 92 138 148 143 131 128 123 112 103 91 83 77 66 67 78 80
313 285 270 264 260 274 302 223 132 64 49 48 51 62 62 53 53 64 77 102 110 93 97 130 134 128 103 75 50 27 18 22 24 25 35 47 46 46 48 46 45 46 42 41 50 59 65 60 51 55 44 356 328 180 147 190 211 168 95 85 71 62 54 34 30 58 81 117 132 111 62 97 128 139 140 137 137 130 112 97 79 66 56 58 75 83 73
305 286 268 258 252 252 257 233 205 180 60 55 50 68 99 38 29 42 61 97 122 130 177 189 139 110 94 82 55 32 26 30 32 34 48 60 50 43 45 47 44 38 37 46 41 41 74 80 70 71 55 8 324 273 180 229 211 124 110 111 107 98 79 55 48 67 95 116 116 92 82 101 117 125 132 135 132 119 107 74 34 30 61 88 88 73 36
300 295 286 267 252 246 241 229 221 221 139 73 47 12 209 7 4 11 49 88 110 143 205 230 128 132 133 106 47 28 27 28 25 28 47 59 42 32 33 38 34 18 16 47 60 50 48 58 68 102 82 20 329 295 261 245 180 132 136 137 124 111 99 83 75 82 99 114 117 103 97 110 124 129 139 152 149 135 136 300 291 229 161 129 102 47 26
299 301 301 288 266 249 234 218 215 221 200 128 75 25 43 26 6 7 61 73 78 145 208 218 146 149 146 105 66 29 20 24 21 27 51 42 13 5 22 30 31 30 29 42 77 73 51 28 14 96 90 23 323 292 273 300 89 122 152 158 141 123 115 107 101 104 112 123 130 125 124 143 160 158 150 170 183 196 222 241 236 209 175 145 107 45 30
307 302 294 291 281 258 228 208 207 208 196 170 105 24 22 16 13 28 85 78 70 115 167 221 161 134 99 114 97 36 16 21 20 21 46 34 8 347 16 35 30 42 34 8 11 67 79 309 301 89 99 32 299 287 284 84 95 116 166 174 158 139 130 125 122 124 126 128 131 126 133 157 174 173 158 171 194 215 229 219 203 189 177 166 144 19 346
316 305 285 279 281 261 211 194 194 183 169 163 0 350 -0 9 12 30 99 89 77 108 91 30 191 135 120 158 127 46 21 14 14 14 27 29 16 355 340 353 171 130 14 6 357 162 173 254 311 320 139 149 284 285 284 129 119 135 172 178 169 159 150 146 146 147 145 141 128 97 101 137 160 167 169 183 209 222 216 203 194 187 184 195 221 271 302
324 313 289 268 259 220 177 178 172 151 142 164 169 314 347 8 17 53 104 93 107 154 102 40 226 155 134 162 128 53 23 15 21 17 7 11 21 15 345 316 197 95 17 348 285 236 157 38 321 276 152 121 251 241 241 153 147 162 179 180 178 178 174 170 170 165 158 158 157 142 144 154 159 172 194 213 227 219 198 189 192 194 197 215 243 269 290
345 338 283 241 188 150 148 164 163 154 167 186 176 302 347 14 39 89 97 86 92 121 112 168 207 142 91 121 93 49 1 8 33 25 3 358 21 22 347 317 350 51 358 289 256 281 55 40 295 270 165 180 252 241 9 353 242 202 205 196 189 191 192 186 177 167 161 169 178 170 169 175 179 204 225 226 221 208 195 191 197 201 207 227 252 275 292
10 61 132 139 131 129 138 162 172 173 177 171 149 29 20 44 78 97 87 71 71 76 81 201 118 58 17 44 74 20 327 359 20 16 18 14 6 7 350 335 4 15 306 247 197 17 10 308 280 276 257 267 292 358 17 328 292 265 248 215 195 196 194 175 162 159 159 171 183 187 191 199 211 227 231 223 211 202 196 196 204 210 217 236 258 280 294
57 93 121 131 133 134 144 162 170 167 155 139 119 77 62 71 102 105 74 45 74 75 43 330 86 72 346 282 67 17 345 357 355 358 29 20 351 342 -0 355 10 344 293 242 72 12 295 232 253 282 280 276 304 19 10 332 302 271 250 221 196 195 191 174 165 164 165 174 193 202 203 208 222 229 227 218 207 201 199 202 208 213 225 245 263 282 293
84 103 115 118 124 134 141 150 153 146 133 121 112 103 92 101 147 127 91 63 98 86 48 40 70 53 340 315 75 55 12 336 315 335 26 24 5 357 351 354 26 331 291 277 80 0 273 228 213 281 271 209 148 63 6 344 313 272 246 217 195 190 186 179 178 180 182 191 204 202 202 212 227 229 222 213 204 201 201 202 206 215 232 251 267 282 290
89 106 107 100 114 138 142 145 143 133 123 111 107 112 107 70 57 59 154 145 111 72 36 43 72 58 20 354 20 49 25 353 331 336 352 9 27 352 319 330 29 320 287 316 73 355 290 281 267 275 282 71 77 28 -0 343 315 286 256 219 195 184 180 181 184 186 186 185 179 182 198 215 223 219 213 207 202 200 200 199 203 219 238 255 274 286 288
94 101 105 110 121 124 120 119 120 119 121 132 112 77 45 69 74 16 261 141 110 80 41 20 70 88 57 15 344 5 24 17 347 309 306 333 36 317 300 335 26 291 282 33 62 298 278 284 281 284 313 8 23 8 359 355 340 307 257 207 185 174 170 175 182 185 185 183 180 185 200 209 207 204 202 199 198 200 204 206 210 224 240 257 281 289 280
85 100 113 118 117 113 109 105 104 104 119 143 107 66 32 83 123 119 29 60 80 85 54 29 15 40 47 27 357 2 10 359 307 274 282 328 55 303 300 352 286 270 292 33 0 274 271 279 278 284 341 24 16 5 2 359 349 321 202 176 170 169 170 176 185 190 191 192 193 196 202 202 199 197 194 191 192 197 203 210 216 224 236 258 284 287 271
96 115 122 122 118 115 113 96 68 74 100 89 86 103 113 119 131 118 90 89 95 77 56 47 25 30 57 43 351 325 324 311 283 287 301 334 40 288 285 272 256 280 341 349 281 275 284 284 283 306 354 20 25 19 10 -0 344 287 189 174 169 169 173 180 189 193 195 198 199 198 199 199 195 192 190 189 190 194 202 210 214 219 237 267 289 288 275
107 121 124 120 115 121 120 83 45 59 97 72 51 131 133 133 145 151 125 116 121 88 58 38 341 317 358 2 326 295 274 242 271 291 301 311 292 275 280 285 298 338 335 283 272 286 303 288 281 301 322 343 17 19 10 3 351 292 210 194 186 181 182 187 193 195 198 200 200 199 197 194 191 191 192 194 198 203 210 214 215 220 242 274 289 283 275
111 131 136 128 77 3 48 93 55 49 85 83 121 152 134 133 138 125 101 90 72 0 52 19 326 311 320 336 315 279 284 307 299 287 299 308 291 276 284 310 322 314 294 282 278 289 298 286 266 278 305 328 349 353 354 358 355 328 234 211 204 199 197 197 199 200 202 201 199 200 199 195 196 199 203 208 213 215 216 218 219 223 240 271 288 281 275
113 143 164 152 18 353 7 137 133 123 121 121 116 98 94 97 93 89 94 116 256 299 319 320 307 302 309 321 318 281 292 303 299 290 299 298 287 280 302 307 289 274 276 282 281 284 294 301 315 341 348 349 346 341 342 352 356 349 287 224 214 209 206 206 205 205 204 200 198 201 201 201 205 211 215 221 227 227 224 223 223 227 241 266 285 280 270
96 131 163 145 113 115 180 111 79 84 106 111 96 81 78 83 90 94 106 154 301 330 325 306 292 288 298 307 296 276 283 298 298 291 281 277 277 281 281 271 266 262 271 279 282 292 309 310 302 304 341 354 348 342 335 336 352 359 346 258 223 213 210 210 209 208 208 205 204 205 206 207 212 217 220 224 231 233 230 226 225 230 243 260 278 278 269
83 132 110 130 129 116 115 120 120 116 112 109 103 98 99 113 126 123 124 125 338 336 328 319 311 298 284 271 276 286 298 298 282 270 264 271 279 271 244 249 261 267 272 276 280 293 317 322 312 299 298 314 322 322 318 317 338 358 -0 331 247 219 214 213 213 212 211 210 210 212 213 215 218 221 222 225 230 233 232 229 227 231 241 255 269 272 266
85 92 104 121 116 91 113 140 155 146 132 131 138 146 155 168 143 117 118 129 315 324 325 323 314 306 303 298 287 285 283 270 261 261 247 245 252 248 245 265 274 273 270 272 276 287 306 316 313 298 286 292 300 304 306 310 322 337 346 344 305 235 221 219 219 218 216 215 216 217 214 214 219 223 224 227 232 233 232 231 229 231 238 250 259 260 256
78 97 122 142 136 131 143 168 191 164 148 159 184 197 200 216 217 155 147 294 312 309 289 268 263 279 295 300 291 281 268 254 257 265 261 255 253 251 256 265 272 281 291 290 287 294 304 309 306 295 288 286 288 294 300 306 310 313 317 322 317 273 235 224 223 224 223 221 221 220 216 214 218 222 224 228 231 232 231 231 232 232 236 244 250 251 250
100 132 153 159 134 147 158 179 212 185 172 198 222 213 214 243 256 253 269 297 299 295 287 281 276 277 276 268 264 272 279 266 252 255 262 266 262 254 258 265 273 290 300 298 294 295 299 299 299 299 296 287 283 287 293 297 299 300 299 296 294 286 262 239 230 229 230 229 227 225 223 221 223 224 224 227 230 233 234 236 236 236 236 239 244 248 249
111 137 143 139 149 169 177 199 242 239 229 233 230 215 231 257 265 270 282 284 279 279 284 286 272 259 257 261 269 275 275 261 247 250 259 261 249 247 263 281 291 295 297 297 296 296 296 294 294 295 296 291 285 284 287 290 293 295 294 288 280 274 267 251 236 230 232 234 232 230 229 227 226 225 225 226 230 238 244 246 242 239 238 238 240 243 245